星链-5807 (STARLINK-5807 )

导读

STARLINK-5807是美国SpaceX公司星链星座的一员,于2023年3月3日发射。作为星链低轨互联网星座的组成部分,它运行在近地轨道,依托霍尔氪离子电推系统完成轨道爬升与构型调整,承担全球高速互联网接入服务,重点覆盖偏远地区,也可支持军事及应急通信场景,助力星链全球低延迟宽带网络的搭建。

基本信息
目录编号:
55791
目录名称:
STARLINK-5807
国际标识:
2023-028BC
轨道中心:
EARTH
卫星名称:
星链-5807
卫星全名:
星链-5807 (STARLINK-5807 )
卫星状态:
在轨 (已飞行1281 天)
发射日期:
2023-03-03 UTC
国别 :
美国 (US)
星等 :
--
轨道信息
数据来源 国际轨道数据 AOE轨道数据
星历时间 2026-09-03T09:30:33+0800
1天前
查看轨道信息
2026-09-03T23:00:00+0800
19小时前
查看轨道信息
半长轴 6950.218km 6950.212km
偏心率 0.0003015 0.0003011
轨道倾角 69.999° 70.000°
近地点辐角 268.838° 273.562°
升交点赤经 117.292° 115.874°
平近点角 91.244° 237.705°
近地点 569.985km 569.982km
远地点 574.177km 574.168km
周期 96.108分钟 96.107分钟
每日圈数 14.98322 14.983241
详细信息
固有亮度:
5
最大亮度:
2.5
卫星平台:
Starlink v1.5
覆盖范围:
全球
运营商:
太空探索技术公司
运营商所在国:
美国
制造商(研发单位):
太空探索技术公司
制造商所在国:
美国
使用方式:
暂无
卫星简介
星链(Starlink)计划是由太空探索技术公司(SpaceX)提出的一个巨型低轨卫星互联网星座项目,计划在2019年至2024年间在太空搭建由约1.2万颗卫星组成的“星链”网络,其中1584颗将部署在地球上空550千米处的近地轨道,并从2020年开始工作。该卫星仍在工作。
2D轨道图
3D轨道图
轨道高度分析图
轨道倾角分析图
轨道综合分析图
查看轨道综合分析图
交会数据列表
事件ID 空间交会对象 最接近时刻(TCA) 交会距离 交会风险概率(CRP) 交会风险指数(CRI) 操作
CDM_260827-192304-367805-579124
2026-08-27T
19:23:55+0000
1.673 km
极远距离
3.052424E-6 低风险 0.45